星链-1160 (STARLINK-1160 )

导读

STARLINK-1160是美国SpaceX公司星链星座的一颗低轨互联网卫星,于2020年1月29日发射升空,属于星链网络初期组网卫星。它运行在近地轨道,依托星链大规模低轨卫星星座架构,为全球偏远、无基础设施覆盖区域提供宽带互联网接入服务,同时星链卫星也兼具潜在军事通信应用价值,不过其密集部署也带来了轨道碰撞风险与天文观测干扰争议。

基本信息
目录编号:
45082
目录名称:
STARLINK-1160
国际标识:
2020-006AQ
轨道中心:
EARTH
卫星名称:
星链-1160
卫星全名:
星链-1160 (STARLINK-1160 )
卫星状态:
已陨落 最后检测时间 2024-09-12
发射日期:
2020-01-29 UTC
国别 :
美国 (US)
星等 :
--
轨道信息
数据来源 国际轨道数据
星历时间: 2024-09-12T17:29:34+0800
轨道信息已过期640天
半长轴: 6590.244km
偏心率: 0.0009755
轨道倾角: 53.033°
近地点辐角 280.372°
升交点赤经 101.188°
平近点角 215.510°
近地点: 205.68km
远地点: 218.538km
周期: 88.738分钟
每日圈数: 16.22746
详细信息
固有亮度:
5
最大亮度:
2.5
卫星平台:
Starlink V1.0
覆盖范围:
全球
运营商:
太空探索技术公司
运营商所在国:
美国
制造商(研发单位):
太空探索技术公司
制造商所在国:
美国
使用方式:
暂无
卫星简介
星链(Starlink)计划是由太空探索技术公司(SpaceX)提出的一个巨型低轨卫星互联网星座项目,计划在2019年至2024年间在太空搭建由约1.2万颗卫星组成的“星链”网络,其中1584颗将部署在地球上空550千米处的近地轨道,并从2020年开始工作。该卫星仍在工作。